CAPE
0 0 0 0 0 0 0 0 0 32 126 1 4 0 0 0 0 0 85 466 1384 1095 1662 1365 1213 671 437 260 342 370 333 225 180 172 193 278 299 409 346 182 335 268 322 316
0 0 0 0 0 0 1 0 0 0 167 16 44 0 0 0 0 0 1 0 470 1617 1265 1421 1331 676 430 161 113 86 170 170 351 356 323 357 313 393 289 224 334 511 267 193
0 0 0 0 0 0 0 1 1 0 62 146 52 10 0 0 0 0 0 34 31 152 1478 1401 1408 889 362 78 169 158 125 124 195 262 272 336 412 575 763 654 531 179 403 423
9 32 0 0 0 17 24 28 16 42 83 23 28 0 0 0 0 0 0 10 31 115 1707 1674 1274 621 308 238 64 10 82 260 274 380 467 505 586 627 651 529 304 414 511 299
116 7 3 31 3 177 220 74 83 79 205 27 0 112 133 61 0 0 197 303 335 302 1920 1692 1055 655 447 197 64 180 164 264 537 523 505 645 863 849 710 713 563 642 579 346
9 39 159 11 177 171 291 260 108 41 41 248 0 229 152 92 155 190 222 349 439 546 1602 1389 1035 558 416 241 485 502 449 580 787 745 783 914 978 1056 850 653 513 425 21 350
11 4 0 76 180 95 5 19 64 19 0 50 248 306 362 181 267 250 226 487 770 838 1934 1448 1025 674 366 288 504 537 557 874 1077 1098 1115 1090 1096 955 798 752 30 12 167 368
75 3 0 168 436 561 370 235 260 296 183 28 7 0 15 0 414 305 354 736 909 1862 2032 1624 833 534 285 411 605 841 924 1109 1382 1430 1368 1332 1302 1055 829 401 101 145 220 303
770 442 57 8 12 6 2 2 7 3 14 4 19 8 1 4 0 229 546 850 1174 1752 1096 491 428 480 53 0 0 179 1548 1570 1771 1805 1711 863 1083 802 364 134 157 108 174 178
476 186 20 14 0 0 0 4 27 38 1 11 31 42 47 117 216 852 1019 473 60 0 0 0 0 0 0 0 0 0 22 1363 1131 1534 1492 1057 230 185 177 208 159 91 51 1
181 58 103 0 0 0 0 0 0 11 3 17 100 511 839 522 955 778 707 511 327 26 13 63 0 0 0 0 0 0 0 9 697 1147 864 0 1 0 0 0 0 0 0 0
0 14 8 0 0 0 0 0 0 0 0 44 125 866 1234 1340 732 319 312 592 214 0 0 0 5 0 0 0 0 0 3 370 649 535 305 0 0 0 0 0 0 0 0 0
0 4 0 0 1 0 0 0 0 0 0 0 0 118 977 1322 954 555 134 257 252 81 20 43 0 0 4 0 4 234 715 318 373 161 138 21 0 0 0 0 0 0 0 0
0 0 0 0 0 0 0 0 0 0 0 0 0 0 339 1183 849 224 150 162 123 150 56 14 63 414 576 570 599 478 426 212 97 108 127 65 105 51 0 0 0 0 0 0
0 0 0 0 0 0 0 0 0 0 0 0 0 0 741 977 397 438 733 467 386 88 206 282 739 588 438 519 430 441 323 193 55 0 5 4 0 0 0 0 0 0 0 0
0 0 0 0 0 0 0 0 0 0 0 0 0 0 0 645 482 412 445 332 301 736 707 710 363 428 266 388 359 243 0 0 11 0 1 1 0 0 0 0 0 0 0 0
0 0 0 0 0 0 0 0 0 0 0 0 0 0 0 430 451 520 559 413 346 354 6 96 96 197 361 375 397 174 44 4 1 0 0 0 0 0 0 0 0 0 0 0
0 0 0 0 0 0 0 0 0 0 0 0 0 0 820 615 1043 735 288 0 0 64 21 32 331 414 333 307 325 90 35 2 1 3 0 0 0 0 0 0 0 0 0 0
0 0 0 0 0 0 0 0 0 0 0 0 0 161 394 343 137 31 18 70 0 62 172 117 141 250 440 78 60 83 28 12 0 0 0 0 0 0 0 2 0 0 0 0
0 0 0 0 0 0 0 0 0 0 0 0 0 559 269 89 22 4 0 0 112 109 151 232 115 335 369 37 5 0 0 0 0 0 0 0 0 0 0 0 0 0 0 0
0 0 0 0 0 0 0 10 19 18 116 140 450 246 196 263 478 452 382 236 29 204 104 14 172 263 235 0 0 0 0 0 0 0 0 0 0 0 0 0 0 0 0 0
0 0 4 0 5 0 12 95 101 0 0 293 88 60 165 382 268 89 72 92 0 5 4 7 0 0 0 0 0 0 0 4 0 0 0 0 0 0 0 0 0 0 0 0
37 39 19 22 9 1 32 68 116 27 3 235 148 196 170 36 4 21 3 0 0 0 0 0 0 0 0 0 0 0 0 0 0 0 0 0 0 0 0 0 0 0 0 0
9 46 99 71 27 19 23 51 54 78 110 164 137 113 156 58 2 2 0 0 0 0 0 0 0 0 0 0 0 0 0 0 0 0 0 0 0 0 0 0 0 0 0 0
27 63 54 26 190 37 86 49 65 96 57 64 41 5 0 0 0 0 1 0 0 0 0 0 0 0 0 0 0 0 0 0 0 0 0 0 0 0 0 0 0 0 0 0
68 52 27 22 27 33 28 85 15 21 29 39 98 8 5 0 0 2 0 0 0 0 0 0 0 0 0 0 0 0 0 0 0 0 0 0 0 0 0 0 0 0 0 0
32 20 11 30 33 62 43 26 16 17 24 51 46 40 17 22 0 0 0 3 0 0 0 0 0 0 0 0 0 0 0 0 0 0 0 0 0 0 0 0 0 0 0 0
CIN
0 0 0 0 0 0 0 0 0 -34 -115 -103 -82 0 0 0 0 0 -77 -106 -111 -184 -167 -198 -221 -375 -437 -387 -351 -315 -308 -342 -348 -317 -281 -203 -184 -134 -104 -113 -86 -89 -69 -62
-1 0 0 0 0 0 -74 0 0 0 -88 -192 -195 -2 0 0 0 0 -156 0 -103 -108 -223 -184 -213 -375 -433 -455 -451 -370 -336 -323 -283 -241 -232 -177 -163 -129 -118 -121 -98 -62 -62 -69
0 0 0 0 -1 0 0 -5 -12 -8 -82 -212 -245 -66 0 0 0 0 0 -186 -191 -222 -131 -156 -219 -317 -376 -427 -230 -413 -372 -298 -245 -201 -218 -187 -164 -107 -71 -78 -69 -80 -74 -51
-47 -50 -14 0 0 -65 -174 -287 -265 -171 -174 -165 -172 -40 0 0 0 0 0 -110 -195 -193 -154 -157 -273 -471 -483 -455 -430 -414 -383 -242 -225 -215 -200 -185 -140 -96 -72 -94 -89 -77 -74 -70
-70 -74 -37 -44 -18 -98 -121 -297 -279 -324 -230 -162 0 -230 -164 -123 0 0 -184 -145 -167 -175 -170 -192 -374 -393 -396 -464 -442 -375 -366 -244 -190 -213 -190 -162 -108 -73 -72 -54 -74 -71 -59 -60
-498 -224 -92 -16 -69 -165 -140 -149 -324 -341 -376 -200 -4 -124 -123 -115 -106 -148 -110 -156 -145 -144 -154 -209 -286 -377 -457 -449 -314 -257 -251 -209 -210 -197 -163 -109 -79 -53 -60 -78 -79 -108 -131 -77
-505 -344 0 -231 -220 -100 -124 -221 -211 -198 0 -192 -85 -104 -118 -103 -110 -151 -172 -132 -129 -125 -142 -181 -218 -378 -425 -390 -269 -242 -199 -214 -165 -144 -109 -94 -89 -99 -77 -93 -205 -64 -130 -103
-223 -128 0 -273 -154 -81 -123 -250 -232 -283 -328 -226 -119 -32 -68 -7 -102 -148 -120 -105 -109 -109 -154 -236 -348 -373 -385 -287 -260 -209 -152 -128 -108 -98 -77 -67 -78 -83 -72 -154 -138 -56 -85 -91
-122 -113 -271 -239 -610 -633 -212 -42 -354 -150 -312 -302 -260 -203 -183 -134 0 -225 -113 -75 -90 -150 -329 -416 -405 -314 -24 0 0 -230 -91 -80 -64 -63 -71 -86 -102 -87 -118 -124 -136 -103 -71 -78
-144 -217 -306 -333 -101 0 0 -410 -348 -289 -196 -220 -192 -212 -192 -186 -149 -289 -334 -587 -697 0 0 0 0 0 0 0 0 0 -7 -38 -68 -57 -38 -99 -211 -157 -113 -118 -141 -120 -162 -56
-301 -348 -227 0 0 0 0 0 -29 -83 -156 -207 -147 -111 -74 -124 -331 -469 -540 -554 -591 -341 -338 -539 0 0 0 0 0 0 0 -72 -130 -45 -70 0 0 0 0 0 0 0 0 0
0 -245 -98 0 0 0 0 0 0 0 0 -210 -160 -56 -84 -195 -377 -538 -574 -491 -627 0 0 0 -584 0 0 0 0 0 -82 -185 -75 -92 -131 0 0 0 0 0 0 0 0 0
0 -443 0 0 -200 0 0 0 0 0 0 0 -7 -129 -59 -125 -238 -357 -529 -403 -407 -445 -475 -444 0 0 -523 0 -175 -131 -65 -82 -63 -83 -93 -144 0 0 0 0 0 0 0 0
0 0 0 0 0 0 0 0 0 0 0 0 0 0 -100 -81 -167 -332 -364 -354 -356 -279 -314 -87 -230 -152 -113 -82 -41 -60 -55 -49 -82 -75 -100 -115 -84 -62 0 0 0 0 0 0
0 0 0 0 0 0 0 0 0 0 0 0 0 0 -120 -60 -140 -173 -126 -141 -148 -210 -171 -166 -70 -73 -103 -85 -67 -43 -53 -79 -163 0 -85 -113 0 0 0 0 0 0 0 0
0 0 0 0 0 0 0 0 0 0 0 0 0 0 0 -71 -116 -168 -178 -144 -115 -60 -40 -33 -75 -58 -55 -42 -27 -41 0 0 -73 0 -94 -111 0 0 0 0 0 0 0 0
0 0 0 0 0 0 0 0 0 0 0 0 0 0 0 -58 -138 -145 -182 -206 -213 -141 -285 -136 -162 -147 -44 -28 -27 -42 -84 -53 -89 0 0 0 0 0 0 0 0 0 0 0
0 0 0 0 0 0 0 0 0 0 0 0 0 0 -74 -101 -64 -118 -180 0 0 -153 -37 -248 -113 -42 -39 -56 -44 -63 -144 -142 -12 -76 0 0 -19 0 0 0 0 0 0 0
0 0 0 0 0 0 0 0 0 0 0 0 0 -41 -155 -180 -300 -240 -128 -215 0 -191 -108 -124 -135 -98 -55 -333 -157 -48 -70 -44 0 0 0 0 0 0 0 -44 -5 0 0 0
0 0 0 0 0 0 0 0 0 0 0 0 0 -38 -108 -221 -390 -63 0 0 -158 -130 -123 -112 -134 -75 -63 -219 -153 0 0 0 0 0 0 0 0 0 0 0 0 0 0 0
0 0 0 0 0 0 0 -25 -18 -26 -38 -59 -31 -100 -141 -112 -68 -90 -85 -89 -103 -95 -113 -151 -79 -55 -45 0 0 0 0 0 0 0 0 0 0 0 0 0 0 0 0 0
0 0 0 0 -8 0 -18 -29 -81 0 0 -79 -153 -131 -12 -55 -72 -115 -138 -139 0 -32 -103 -95 0 0 -16 0 0 0 0 -34 0 0 0 0 0 0 0 0 0 0 0 0
-14 -81 -27 -9 -44 -23 -162 -71 -61 -29 -105 -62 -54 -51 -33 -79 -36 -73 -12 0 0 0 0 0 0 0 0 0 0 0 0 0 0 0 0 0 0 0 0 0 0 0 0 0
-75 -126 -84 -73 -52 -39 -46 -19 -23 -43 -23 -29 -16 -24 -22 -32 -5 -4 0 0 0 0 0 0 0 0 0 0 0 0 0 0 0 0 0 0 0 0 0 0 0 0 0 0
-114 -79 -93 -74 -45 -47 -33 -40 -28 -27 -26 -25 -19 -23 -3 0 0 0 -85 0 0 0 0 0 0 0 0 0 0 0 0 0 0 0 0 0 0 0 0 0 0 0 0 0
-94 -63 -59 -73 -47 -41 -40 -39 -48 -44 -47 -45 -20 -52 -68 0 0 -60 0 0 0 0 0 0 0 0 0 0 0 0 0 0 0 0 0 0 0 0 0 0 0 0 0 0
-53 -15 -53 -64 -60 -48 -31 -24 -37 -41 -56 -33 -23 -32 -49 -39 -20 -8 0 -70 -29 0 0 0 0 0 0 0 0 0 0 0 0 0 0 0 0 0 0 0 0 0 0 0
Wind_Speed
8 7 5 8 8 8 8 9 8 5 11 12 13 11 10 8 6 4 4 7 9 14 21 21 19 19 17 17 16 17 15 14 14 10 9 8 8 8 8 7 7 7 6 5
4 3 6 6 10 17 17 11 8 7 8 16 15 7 8 8 8 6 5 7 7 9 15 21 20 20 20 17 16 16 15 15 12 12 10 9 8 8 7 7 7 6 5 5
5 2 4 7 5 5 7 13 11 10 8 9 8 7 6 8 8 5 3 4 5 5 9 17 18 17 18 10 3 12 13 13 13 13 11 11 9 7 7 8 6 6 4 4
5 4 7 7 6 3 15 14 14 9 13 16 11 10 9 9 10 9 6 7 5 5 5 14 13 13 14 18 15 12 12 9 11 9 10 9 7 7 8 5 6 5 6 6
5 5 4 5 8 4 6 3 6 16 9 13 16 13 8 2 7 8 8 3 4 4 7 13 16 17 16 13 11 11 10 11 10 10 9 7 7 7 6 5 5 6 5 6
4 6 1 5 4 6 2 4 2 14 14 7 6 6 4 7 7 6 6 4 3 4 6 13 14 17 15 12 7 8 10 11 8 8 8 8 8 8 7 5 7 3 4 4
5 4 8 9 17 5 8 8 3 6 11 9 6 6 7 9 6 7 7 8 3 1 8 11 13 14 14 10 8 11 8 7 8 8 8 9 9 6 6 6 2 4 5 5
4 5 4 21 13 6 4 5 9 7 3 11 7 4 6 8 2 7 8 5 5 4 7 8 13 14 10 9 8 7 8 7 7 7 9 8 8 6 6 5 2 6 7 5
2 6 6 11 5 15 15 9 9 8 8 8 8 7 6 5 4 5 9 6 4 8 15 15 14 12 16 9 17 21 7 3 5 6 7 5 5 4 4 4 2 11 5 3
2 5 3 6 11 14 14 11 7 9 6 6 4 7 7 7 7 6 9 15 18 19 17 13 10 12 12 13 16 19 18 6 6 5 1 4 6 4 1 2 2 5 3 3
4 7 5 6 5 4 8 12 17 13 8 10 10 9 5 4 8 5 6 6 11 13 11 9 1 2 2 10 16 13 11 5 7 3 5 5 5 1 3 3 0 3 2 3
5 1 4 7 9 8 9 8 9 10 12 10 7 5 8 10 9 7 6 5 9 11 13 8 6 4 2 6 10 9 8 7 4 0 2 5 5 6 14 9 5 8 6 6
8 15 11 13 5 7 5 6 5 6 9 8 10 6 2 9 10 10 8 6 9 8 4 5 8 8 6 8 8 11 5 3 1 2 3 6 5 7 6 1 2 5 7 9
8 9 7 9 5 8 8 9 8 8 8 7 8 8 5 4 9 13 10 10 11 11 13 10 10 8 8 6 6 5 1 1 2 1 4 4 5 5 6 6 5 3 1 2
10 9 6 3 2 3 5 6 7 7 7 8 8 6 1 5 5 7 8 11 12 12 10 8 7 6 5 6 6 4 3 2 4 5 5 6 5 5 5 5 4 6 4 3
9 7 7 6 6 6 7 7 6 7 8 7 8 9 4 7 6 5 6 8 8 6 5 8 5 4 6 5 5 5 4 3 5 5 5 5 4 5 5 4 4 5 5 3
10 9 8 8 8 9 7 7 7 8 9 10 9 9 7 4 4 4 6 7 9 8 14 10 4 5 6 1 1 1 4 4 7 6 5 5 5 4 4 4 4 5 5 4
11 9 9 8 7 7 7 8 8 8 9 10 12 9 7 6 4 7 8 9 9 10 8 7 1 4 6 3 2 2 5 4 4 5 4 4 4 4 4 4 8 7 5 4
13 12 12 12 8 8 10 10 7 8 10 12 12 3 8 10 8 7 8 8 7 6 5 6 10 8 5 6 3 1 4 4 5 4 4 4 3 2 3 4 4 6 8 6
9 9 11 13 13 10 9 10 9 8 11 13 13 7 11 8 7 7 6 6 4 5 5 4 5 5 4 5 1 2 5 5 5 4 4 3 3 1 3 5 5 4 7 6
13 13 14 13 12 11 10 10 10 8 11 9 5 5 9 6 8 9 7 5 2 6 6 5 3 4 4 4 2 2 4 6 6 5 5 5 3 3 3 3 4 4 5 4
9 10 10 9 9 9 7 5 8 4 6 9 8 9 9 4 7 7 7 7 4 6 4 2 4 4 4 5 2 3 5 4 4 3 4 5 4 4 2 3 5 5 5 5
6 7 7 7 6 5 5 3 3 4 2 5 5 2 3 2 3 3 4 4 5 7 5 4 5 9 7 3 4 5 5 5 3 3 3 5 5 4 2 3 4 5 5 5
7 6 6 3 4 5 7 6 5 5 3 3 3 4 2 2 4 4 5 6 11 9 6 5 5 7 5 2 3 4 5 5 1 3 3 5 5 4 3 5 4 4 5 5
9 11 6 7 5 2 1 3 4 5 4 4 4 6 4 3 4 3 4 5 11 8 6 9 8 7 3 3 4 4 6 2 4 4 3 3 1 4 4 4 5 5 4 5
9 5 4 5 3 1 1 1 1 1 1 1 2 2 3 3 4 4 4 5 6 7 5 5 6 5 5 5 5 4 5 4 4 3 2 2 1 2 4 5 5 6 5 5
4 5 4 4 5 5 4 4 3 3 3 2 3 1 2 2 3 3 2 4 4 6 5 6 6 6 5 5 4 3 2 3 3 4 4 4 2 2 2 3 5 5 5 5
Wind_Direction
221 237 270 220 187 213 217 216 158 191 149 181 158 159 150 141 123 158 187 211 197 168 181 182 179 173 177 174 170 176 176 173 179 179 177 185 191 199 200 209 220 225 234 248
208 240 235 230 211 206 239 225 245 221 197 191 186 126 141 166 168 177 211 242 209 210 176 183 180 173 174 175 170 168 177 177 173 173 179 188 198 203 203 219 227 225 233 235
184 201 333 320 248 220 244 212 196 230 222 136 139 139 148 146 136 145 212 244 274 232 201 182 181 168 171 118 305 160 158 163 171 175 180 195 199 194 202 214 204 225 238 233
152 123 241 238 309 29 84 46 36 39 154 135 138 152 157 163 162 178 200 224 239 292 192 175 159 146 144 159 171 177 163 169 170 168 182 197 189 192 212 201 209 214 231 240
106 189 214 232 265 114 132 7 47 57 80 141 148 87 30 109 147 156 133 175 216 238 179 158 156 159 149 159 161 164 162 190 176 173 193 188 190 199 210 199 217 212 222 249
83 91 9 246 152 105 72 119 72 81 62 37 88 91 195 96 102 108 147 186 222 266 155 162 161 154 151 158 156 171 183 192 174 171 174 187 192 200 203 192 214 172 266 253
124 106 280 337 299 88 60 250 70 109 121 97 77 172 197 139 155 172 196 187 179 43 150 174 152 141 151 157 185 197 182 156 164 176 184 197 206 193 191 179 148 272 235 263
113 94 269 355 313 93 217 59 96 83 41 113 127 104 133 113 228 226 210 180 173 125 149 139 132 129 135 172 197 169 158 165 176 188 204 213 197 179 195 152 246 7 279 273
101 126 114 250 40 358 28 44 22 42 41 51 45 30 15 3 287 253 223 175 127 84 52 48 74 74 67 42 47 354 110 126 178 205 207 197 152 132 42 42 72 249 244 235
120 13 319 344 50 44 9 10 355 335 15 34 41 25 1 352 309 23 86 94 99 86 70 48 19 78 100 76 58 31 336 38 7 356 45 64 54 79 56 177 244 225 98 95
69 35 17 359 352 187 94 65 354 345 358 6 21 3 311 289 101 110 104 114 108 109 97 101 170 103 193 126 116 157 257 323 285 190 208 121 86 334 153 82 108 93 109 113
157 255 105 279 286 54 36 32 46 350 334 346 7 355 86 97 102 114 108 112 98 105 130 157 188 201 230 135 140 198 210 242 248 246 66 133 143 81 37 75 45 75 77 112
170 176 175 234 201 52 22 16 23 333 331 338 340 1 103 128 147 150 135 121 113 123 137 182 225 202 205 226 233 225 166 200 290 280 217 144 131 138 141 299 41 76 86 79
78 94 75 19 17 20 12 356 348 326 316 327 338 344 335 126 130 135 156 168 149 162 175 211 219 181 162 131 111 91 120 174 221 192 141 117 136 163 153 161 162 160 300 72
68 73 106 113 64 18 347 348 359 345 337 337 337 358 320 187 173 145 138 151 156 163 170 176 147 130 144 138 141 140 90 39 111 112 97 103 95 89 89 95 108 112 96 41
67 63 39 43 31 25 24 4 357 334 330 324 331 328 326 239 211 188 144 113 111 97 107 98 104 38 51 97 151 129 116 112 122 123 114 108 116 110 107 125 145 121 118 140
52 31 24 17 8 357 349 342 342 336 331 324 316 309 325 21 144 135 91 93 88 56 88 83 111 92 229 173 67 268 144 119 126 114 122 138 135 131 163 197 141 138 141 141
22 14 5 358 347 338 331 327 322 314 310 311 316 310 26 48 188 108 95 83 69 73 90 116 90 189 280 37 28 64 117 149 156 131 148 153 154 177 210 170 149 152 150 154
360 351 339 326 313 309 315 309 302 305 307 303 306 282 89 92 86 76 86 91 116 131 178 179 173 197 181 91 63 13 150 124 91 92 129 133 152 232 237 177 147 158 149 147
347 341 335 327 318 321 306 309 293 306 300 295 301 156 119 116 116 112 117 126 165 199 177 211 198 156 117 83 10 267 126 122 140 169 166 198 180 104 103 125 127 106 155 155
347 336 330 324 318 320 302 309 303 329 314 303 105 37 129 118 127 146 134 124 37 83 130 171 133 109 127 148 264 263 176 177 196 202 196 201 200 202 159 186 156 141 125 117
329 338 340 349 337 324 313 358 73 32 7 72 72 74 309 70 89 77 69 114 142 98 109 119 94 85 140 154 202 305 310 208 178 186 171 171 146 127 122 140 134 136 134 125
329 345 341 322 344 345 41 24 323 177 154 113 114 119 278 350 76 77 93 117 117 95 92 70 97 90 76 33 12 344 329 312 238 198 156 144 140 131 123 155 151 131 131 133
313 307 289 278 297 6 13 5 27 31 59 61 90 135 51 15 57 86 102 104 123 126 126 135 106 85 67 10 318 280 276 273 41 39 63 150 154 149 143 145 149 130 133 145
280 285 282 301 290 324 350 352 16 36 19 10 27 55 48 59 136 187 137 127 146 140 145 158 155 154 180 253 278 289 266 114 96 82 64 59 247 145 171 168 156 164 159 176
270 264 247 232 232 212 239 170 60 339 199 282 347 24 66 48 75 107 134 161 166 151 161 166 175 199 214 232 263 280 292 134 145 158 131 13 87 301 219 179 157 160 168 159
285 244 297 258 240 206 196 172 171 240 260 223 230 206 290 198 150 131 164 203 209 190 197 180 206 205 207 217 250 270 347 323 240 184 170 170 212 250 290 194 167 175 177 177